User: anonymous   Login
Location: Kernascl�den
(48.0062°N, 3.3198°W)
Time: 17:42:16
(UTC+00:00)
Language:

Cosmos 1538 Rocket - Orbit

View from above orbital plane
View from above orbital plane
View from above satellite
View from above satellite

Ground track
Ground track

The orbit data is extracted from the following two-line orbital elements,

1 14760U 84019B   21104.36874311  .00000100  00000-0  43477-4 0  9991
2 14760  74.0427  78.6177 0028732 313.2627  46.6128 14.35903640943903
Epoch (UTC): 14 April 2021 08:50:59
Eccentricity: 0.0028732
inclination: 74.0427°
perigee height: 751 km
apogee height: 792 km
right ascension of ascending node: 78.6177°
argument of perigee: 313.2627°
revolutions per day: 14.35903640
mean anomaly at epoch: 46.6128°
orbit number at epoch: 94390

The dashed part of the orbit path shows where the satellite is in the earth's shadow,  

DLR